Total_Precipitation_Accumulation
0.01 0.01 0.04 0.14 0.24 0.29 0.28 0.32 0.40 0.51 0.56 0.58 0.59 0.70 0.75 0.70 1.11 2.11 1.52 0.95 0.77 0.58 0.41 0.30 0.27 0.25 0.25 0.24 0.25 0.26 0.26 0.29 0.27 0.22 0.20 0.21 0.18 0.16 0.16 0.17 0.20 0.28 0.33 0.32 0.31 0.33 0.32 0.30 0.30
0.01 0.01 0.04 0.12 0.24 0.24 0.24 0.31 0.50 0.62 0.64 0.56 0.56 0.60 0.66 0.69 0.65 0.78 0.79 0.69 0.59 0.53 0.51 0.37 0.33 0.29 0.25 0.26 0.28 0.30 0.29 0.28 0.25 0.22 0.20 0.18 0.18 0.18 0.19 0.20 0.23 0.32 0.38 0.38 0.33 0.33 0.31 0.29 0.29
0.01 0.02 0.05 0.11 0.18 0.19 0.28 0.39 0.56 0.69 0.70 0.63 0.68 0.79 0.89 0.81 0.76 0.72 0.68 0.59 0.50 0.46 0.45 0.44 0.37 0.33 0.30 0.29 0.32 0.33 0.34 0.31 0.30 0.29 0.26 0.25 0.23 0.23 0.26 0.30 0.34 0.37 0.40 0.42 0.40 0.38 0.38 0.33 0.31
0.01 0.02 0.04 0.08 0.11 0.11 0.21 0.37 0.50 0.62 0.70 0.64 0.69 0.98 1.04 0.79 0.78 0.73 0.70 0.56 0.46 0.50 0.47 0.44 0.43 0.42 0.42 0.41 0.41 0.39 0.38 0.36 0.37 0.36 0.33 0.32 0.33 0.34 0.38 0.45 0.49 0.49 0.49 0.53 0.51 0.49 0.43 0.37 0.36
0.01 0.04 0.07 0.06 0.07 0.10 0.17 0.30 0.49 0.59 0.66 0.62 0.69 0.99 1.29 1.07 0.86 0.78 0.68 0.53 0.44 0.54 0.58 0.48 0.52 0.52 0.53 0.55 0.51 0.49 0.45 0.44 0.44 0.43 0.39 0.38 0.40 0.43 0.48 0.55 0.57 0.56 0.60 0.61 0.57 0.49 0.40 0.36 0.36
0.02 0.05 0.10 0.08 0.08 0.12 0.17 0.20 0.37 0.63 0.71 0.72 0.78 1.14 1.65 1.58 1.13 0.80 0.76 0.65 0.57 0.57 0.55 0.56 0.56 0.59 0.59 0.65 0.70 0.68 0.60 0.57 0.55 0.54 0.49 0.44 0.43 0.45 0.52 0.59 0.61 0.60 0.59 0.56 0.54 0.49 0.43 0.41 0.42
0.04 0.08 0.10 0.09 0.11 0.16 0.19 0.23 0.37 0.52 0.64 0.75 0.79 1.20 1.59 1.58 1.33 1.05 0.95 0.82 0.74 0.69 0.69 0.76 0.80 0.81 0.84 0.85 0.86 0.88 0.79 0.73 0.67 0.62 0.55 0.49 0.49 0.51 0.55 0.64 0.69 0.68 0.60 0.55 0.52 0.50 0.45 0.44 0.45
0.05 0.08 0.07 0.07 0.12 0.20 0.23 0.27 0.36 0.42 0.62 0.69 0.78 1.14 1.56 1.66 1.50 1.52 1.50 1.30 1.17 1.16 1.15 1.18 1.20 1.16 1.04 0.98 0.99 0.96 0.90 0.82 0.74 0.65 0.60 0.60 0.63 0.70 0.79 0.71 0.71 0.71 0.68 0.63 0.62 0.56 0.49 0.50 0.49
0.04 0.06 0.08 0.07 0.12 0.20 0.26 0.33 0.37 0.42 0.57 0.84 0.84 0.97 1.34 1.54 1.62 1.75 1.84 1.69 1.74 1.79 1.75 1.63 1.56 1.42 1.40 1.30 1.10 1.15 1.08 1.02 0.94 0.85 0.77 0.79 0.87 1.05 1.14 0.94 0.97 0.92 0.90 0.86 0.85 0.80 0.74 0.69 0.63
0.07 0.08 0.09 0.07 0.10 0.19 0.26 0.33 0.35 0.47 0.64 0.97 1.05 1.11 1.35 1.61 1.95 2.06 1.98 1.91 1.99 2.26 2.16 1.90 1.95 1.91 1.73 1.58 1.54 1.54 1.38 1.36 1.34 1.34 1.14 1.19 1.50 1.63 1.44 1.45 1.38 1.33 1.27 1.15 1.12 1.08 0.95 0.83 0.81
0.09 0.09 0.08 0.12 0.17 0.23 0.29 0.37 0.41 0.54 0.86 1.10 1.29 1.48 1.61 1.91 2.14 2.28 2.29 2.21 2.25 2.25 2.09 2.19 2.37 2.26 2.25 2.33 2.25 2.06 1.98 1.93 1.79 1.81 1.65 1.73 1.74 1.65 1.67 1.79 1.74 1.64 1.54 1.53 1.54 1.36 1.15 1.16 1.24
0.08 0.08 0.11 0.17 0.24 0.28 0.36 0.47 0.59 0.63 0.87 1.17 1.34 1.70 2.01 2.29 2.40 2.50 2.60 2.50 2.66 2.52 2.28 2.33 2.37 2.40 2.54 2.62 2.64 2.61 2.54 2.47 2.30 2.21 1.95 2.08 2.15 2.16 2.14 2.27 2.27 2.24 2.22 2.23 2.12 1.90 1.74 1.59 1.56
0.06 0.07 0.12 0.23 0.29 0.33 0.45 0.60 0.64 0.74 0.86 1.07 1.35 1.62 1.72 2.01 2.38 2.94 2.99 3.10 3.27 3.11 2.83 2.67 2.79 2.69 2.66 2.85 2.96 2.78 2.92 2.86 2.91 2.81 2.48 2.50 2.53 2.52 2.70 2.67 2.75 2.67 2.81 2.74 2.53 2.26 2.13 2.00 1.75
0.06 0.11 0.17 0.24 0.31 0.41 0.50 0.62 0.65 0.82 1.02 1.12 1.24 1.43 1.71 1.90 2.11 2.61 3.08 3.25 3.44 3.55 3.34 3.05 2.98 3.03 2.92 3.06 3.27 3.16 3.02 3.11 3.14 3.19 2.97 2.93 2.96 2.99 3.03 3.05 3.10 2.91 2.87 2.90 2.77 2.47 2.35 2.21 1.99
0.07 0.15 0.24 0.27 0.28 0.35 0.43 0.64 0.64 0.74 1.02 1.25 1.28 1.38 1.71 2.10 2.34 2.72 3.11 3.43 3.71 3.72 3.45 3.37 3.18 3.41 3.54 3.74 3.68 3.63 3.61 3.62 3.57 3.50 3.51 3.38 3.35 3.41 3.30 3.41 3.46 3.31 3.19 3.13 3.06 2.91 2.65 2.47 2.35
0.13 0.23 0.35 0.35 0.31 0.27 0.42 0.79 0.81 0.81 1.09 1.25 1.41 1.58 1.76 2.08 2.39 2.76 3.04 3.24 3.57 3.65 3.64 3.75 3.51 3.58 3.81 3.82 3.78 3.88 4.06 4.11 4.00 3.86 3.88 3.77 3.79 3.87 3.96 3.78 3.58 3.47 3.37 3.35 3.47 3.27 2.94 2.81 2.83
0.16 0.23 0.31 0.38 0.34 0.34 0.45 0.75 0.80 0.83 1.08 1.21 1.28 1.46 1.65 1.86 2.14 2.49 2.92 3.23 3.43 3.57 3.56 3.76 3.94 3.76 3.95 4.05 4.11 4.28 4.42 4.56 4.47 4.34 4.21 4.18 4.18 4.13 4.24 4.13 3.93 3.77 3.67 3.64 3.39 3.37 3.26 3.21 3.12
0.15 0.17 0.23 0.32 0.32 0.33 0.44 0.64 0.81 0.84 1.10 1.16 1.33 1.32 1.51 1.79 2.06 2.38 2.91 3.32 3.45 3.65 3.71 3.81 4.15 4.15 4.42 4.49 4.33 4.45 4.51 4.63 4.65 4.69 4.62 4.69 4.72 4.58 4.54 4.36 4.19 4.11 4.01 3.88 3.70 3.67 3.60 3.38 3.22
0.12 0.15 0.24 0.31 0.32 0.37 0.49 0.69 0.90 0.97 1.14 1.24 1.41 1.47 1.76 1.93 2.06 2.37 2.84 3.29 3.79 3.90 4.03 4.02 4.16 4.41 4.57 4.70 4.67 4.82 4.82 4.78 4.94 5.16 5.14 5.24 5.28 5.08 4.99 4.84 4.69 4.44 4.17 4.04 3.94 3.77 3.61 3.34 3.22
0.14 0.17 0.28 0.40 0.45 0.50 0.58 0.76 0.97 1.10 1.11 1.39 1.66 1.71 2.18 2.33 2.26 2.44 2.95 3.36 3.80 4.05 4.18 4.38 4.53 4.56 4.68 5.12 5.50 5.78 6.08 6.10 6.04 6.15 6.14 5.95 5.81 5.70 5.51 5.44 5.18 4.79 4.49 4.18 3.93 3.74 3.47 3.21 3.19
0.16 0.22 0.33 0.49 0.49 0.59 0.73 1.13 1.25 1.23 1.26 1.48 1.81 1.94 2.29 2.45 2.58 2.50 2.64 3.02 3.45 3.83 4.06 4.27 4.57 4.95 5.44 6.05 6.44 6.69 6.98 7.10 6.88 6.62 6.41 6.14 5.94 5.79 5.42 5.20 5.08 4.80 4.34 4.04 3.85 3.65 3.42 3.19 3.10
0.15 0.17 0.26 0.35 0.45 0.68 0.73 1.33 1.51 1.46 1.54 1.66 1.84 1.90 2.13 2.12 2.33 2.45 2.50 2.74 3.07 3.39 3.74 4.13 4.49 5.11 5.99 6.66 7.08 7.42 7.50 7.50 7.37 7.09 6.62 6.08 5.70 5.37 5.05 4.78 4.50 4.25 3.93 3.69 3.47 3.35 3.28 3.19 2.99
0.09 0.12 0.19 0.24 0.34 0.56 0.65 1.17 1.52 1.49 1.69 1.83 2.03 2.06 2.06 2.08 2.01 2.11 2.22 2.42 2.80 3.13 3.49 3.94 4.36 5.04 5.73 6.38 6.94 7.40 7.53 7.46 7.25 6.80 6.22 5.59 5.08 4.64 4.25 3.99 3.75 3.52 3.26 3.05 2.86 2.81 2.89 2.94 2.86
0.08 0.14 0.23 0.31 0.51 0.80 0.65 0.98 1.60 1.77 1.93 2.08 2.07 2.14 2.34 2.28 2.11 2.10 2.08 2.16 2.39 2.73 3.07 3.53 3.98 4.55 5.18 5.62 6.17 6.51 6.68 6.57 6.17 5.64 5.03 4.61 4.26 3.92 3.54 3.25 3.03 2.78 2.55 2.40 2.31 2.26 2.30 2.44 2.50
0.11 0.25 0.59 0.76 0.86 0.91 0.64 1.05 1.80 1.99 1.93 2.07 2.15 2.25 2.40 2.36 2.26 2.16 2.11 2.09 2.20 2.44 2.76 3.05 3.30 3.79 4.13 4.47 4.94 5.22 5.22 5.02 4.74 4.46 4.21 3.82 3.38 3.00 2.74 2.48 2.28 2.08 2.00 1.98 1.99 2.00 2.02 2.07 2.14
0.13 0.23 0.63 0.97 0.92 0.87 0.94 1.61 2.19 2.07 1.88 1.84 1.97 2.10 2.17 2.08 2.07 2.06 2.03 2.10 2.15 2.14 2.35 2.53 2.61 2.83 3.06 3.25 3.46 3.53 3.50 3.45 3.42 3.30 3.01 2.69 2.32 2.01 1.90 1.82 1.67 1.62 1.65 1.64 1.70 1.75 1.79 1.84 1.86
0.14 0.21 0.28 0.50 0.61 0.94 1.45 2.04 2.43 2.14 2.01 1.96 1.85 1.73 1.90 1.90 1.86 1.91 1.99 2.10 2.10 1.99 1.97 2.04 2.08 2.09 2.17 2.23 2.36 2.38 2.36 2.40 2.40 2.36 2.21 1.97 1.80 1.60 1.46 1.44 1.41 1.39 1.45 1.48 1.52 1.51 1.46 1.54 1.62
0.13 0.18 0.28 0.50 0.97 1.27 1.62 2.15 2.66 2.59 2.48 2.44 2.17 1.86 1.91 1.92 1.91 1.85 1.82 1.89 1.95 1.81 1.78 1.85 1.89 1.77 1.72 1.66 1.65 1.62 1.72 1.79 1.82 1.77 1.64 1.56 1.49 1.39 1.29 1.21 1.18 1.15 1.14 1.20 1.34 1.36 1.34 1.35 1.34
0.17 0.23 0.31 0.52 0.75 1.24 1.88 2.49 2.45 2.68 2.77 2.58 2.25 1.92 1.91 1.85 1.88 1.90 1.82 1.74 1.73 1.70 1.70 1.61 1.59 1.56 1.49 1.44 1.44 1.37 1.35 1.39 1.38 1.28 1.19 1.19 1.19 1.15 1.08 1.00 0.96 0.93 0.92 0.98 1.12 1.19 1.21 1.24 1.21
0.22 0.25 0.31 0.65 0.78 0.91 1.64 2.54 2.46 2.71 2.83 2.61 2.48 2.23 2.04 2.04 1.97 1.87 1.80 1.69 1.69 1.60 1.57 1.49 1.44 1.38 1.32 1.34 1.37 1.27 1.19 1.19 1.23 1.17 1.07 1.01 1.01 0.98 0.95 0.91 0.89 0.85 0.86 0.94 0.99 1.01 1.00 1.07 1.06